Location: Niles Junction
(37.5763°N, 121.9714°W)
Time: 04:34:41
(UTC+00:00)

CZ-4B R/B - Pass Details

Date: 29 October 2020
Orbit: 389 x 462 km, 97.6° (Epoch: 23 November)

Event Time Altitude Azimuth Distance (km) Brightness Sun altitude
Rises 12:04:29 0° 133° (SE) 2,482 5.7 -29.4°
Reaches altitude 10° 12:07:00 10° 114° (ESE) 1,609 4.9 -28.9°
Maximum altitude 12:09:23 18° 70° (ENE) 1,207 4.3 -28.5°
Drops below altitude 10° 12:11:46 10° 26° (NNE) 1,605 4.5 -28.0°
Enters shadow 12:12:05 - 22° (NNE) 1,703 4.6 -27.9°
